2018-104E (43853 NORAD) Tracking and Keplerian Element Data

This shows tracking and keplerian element data for the satellite.

Feedback or suggestion? Click here.




ElementValue
Catalog43853
Name2018-104E
Epoch Orbit440
Epoch Day14.36702497
Epoch Year2019
RAAN159.0803
Inclination85.0335
Eccentricity0.0018998
Argument of Perigee169.101
Mean Anonmoly191.1588
Mean Motion15.21793784
Decay Rate4.2E-07
L11 43853U 18104E 19014.36702497 .00000042 00000-0 00000+0 0 9995
L22 43853 85.0335 159.0803 0018998 169.1010 191.1588 15.21793784 4406

Live tracking and technical data element details for 2018-104E (NORAD 43853). 2018-104E can be tracked NOW for your location showing map with azimuth and elevation plus other details from your city location.

Track the satellite on the map from your city or location and see movement details for azimuth, elevation, latitude, longitude, range, height, and movement on the map or in text.







IsCatalogInMostPopularTable: catalog: 43853, numindb: 122
Update: records affected: 1



GetName: 43853 2018-104E

Hit Count: updated at: Sun, 21 Jul 2019 15:03:00 GMT